Location: Paul P. Feder Observatory
(46.8670°N, 96.4537°W)
Time: 13:17:11
(UTC-05:00)

ISS - Visible Passes

Search period start: 01 October 2023 00:00
Search period end: 11 October 2023 00:00
Orbit: 414 x 421 km, 51.6° (Epoch: 01 October)

Date Brightness Start Highest point End Pass type
(mag) Time Alt. Az. Time Alt. Az. Time Alt. Az.
01 Oct -3.1 20:03:20 10° WNW 20:06:37 51° SSW 20:09:28 13° SE visible
02 Oct -1.1 20:52:58 10° W 20:54:49 14° SW 20:56:31 11° SSW visible
03 Oct -1.5 20:04:09 10° W 20:06:48 22° SW 20:09:28 10° SSE visible
